[Iaude] MPEC G80: 2024 FS5 [a=1.95,e=0.77,i=4.0,H=24.7]

mpec at cfa.harvard.edu mpec at cfa.harvard.edu
Sat Apr 6 09:49:54 EDT 2024


M.P.E.C. 2024-G80                                 Issued 2024 April 6, 13:48 UT

     The Minor Planet Electronic Circulars contain information on unusual
         minor planets, routine data on comets and natural satellites,
         and occasional editorial announcements.  They are published
    on behalf of Division F of the International Astronomical Union by the
          Minor Planet Center, Smithsonian Astrophysical Observatory,
                          Cambridge, MA 02138, U.S.A.
			  
             Prepared using the Tamkin Foundation Computer Network

                              MPC at CFA.HARVARD.EDU
            URL https://www.minorplanetcenter.net/    ISSN 1523-6714

                                    2024 FS5                                    


Observations:
     K24F05S* C2024 03 31.30492611 42 57.267+24 29 55.13         21.99wXEG080F52
     K24F05S  C2024 03 31.33098811 42 57.814+24 26 55.73         21.43wXEG080F52
     K24F05S  C2024 03 31.34413011 42 58.061+24 25 25.67         21.63wXEG080F52
     K24F05S KC2024 03 31.53011611 43 01.606+24 04 17.21         21.37GVEG080F52
     K24F05S  C2024 04 01.34505311 43 39.718+22 40 49.16         21.81GVEG080F51
     K24F05S  C2024 04 01.34586911 43 39.726+22 40 44.82         21.67GVEG080F51
     K24F05S KC2024 04 04.35962 11 45 12.54 +18 56 34.3          22.7 RVEG080291
     K24F05S KC2024 04 04.37086 11 45 12.67 +18 55 54.7          22.5 RVEG080291
     K24F05S KC2024 04 04.38218 11 45 12.84 +18 55 14.2          22.4 RVEG080291
     K24F05S KC2024 04 05.14621211 45 36.400+18 13 00.45         22.2 GVEG080H01
     K24F05S KC2024 04 05.15585311 45 36.520+18 12 30.33         22.6 GVEG080H01
     K24F05S KC2024 04 05.16397911 45 36.610+18 12 05.23         22.2 GVEG080H01
     K24F05S KC2024 04 05.17088811 45 36.666+18 11 43.73         22.4 GVEG080H01
     K24F05S KC2024 04 06.15166411 46 00.56 +17 23 27.5          23.0 GVEG080H21
     K24F05S KC2024 04 06.16611611 46 00.70 +17 22 47.6          22.5 GVEG080H21
     K24F05S KC2024 04 06.17237711 46 00.79 +17 22 30.4          22.7 GVEG080H21

Observer details:
291 LPL/Spacewatch II.  Observer T. H. Bressi.  1.8-m f/2.7 reflector + CCD.
F51 Pan-STARRS 1, Haleakala.  Observers J. Herman, T. Lowe, P. Minguez, A.
    Schultz, I. Smith.  Measurers K. Chambers, T. de Boer, J. Fairlamb, H.
    Gao, M. Huber, C.-C. Lin, E. Magnier, Y. Ramanjooloo, R. Wainscoat, R.
    Weryk.  1.8-m Ritchey-Chretien + CCD.
F52 Pan-STARRS 2, Haleakala.  Observers J. Herman, T. Lowe, P. Minguez, A.
    Schultz, I. Smith.  Measurers K. Chambers, T. de Boer, J. Fairlamb, H.
    Gao, M. Huber, C.-C. Lin, E. Magnier, Y. Ramanjooloo, R. Wainscoat, R.
    Weryk.  1.8-m Ritchey-Chretien + CCD.
H01 Magdalena Ridge Observatory, Socorro.  Observers W. H. Ryan, E. V. Ryan.
    Measurer W. H. Ryan.  2.4-m f/8.9 Ritchey-Chretien + CCD.
H21 Astronomical Research Observatory, Westfield.  Observer R. Holmes.
    Measurers T. Linder, R. Holmes, L. Horn.  1.3-m f/4.0 astrograph + CCD.

Orbital elements:
2024 FS5                                                 Earth MOID = 0.0001 AU
Epoch 2024 Mar. 31.0 TT = JDT 2460400.5                 Veres                   
M  19.44137              (2000.0)            P               Q                  
n   0.36213733     Peri.  285.41250     +0.22320654     -0.97420722             
a   1.9493382      Node   151.62444     +0.91895498     +0.19896000             
e   0.7661695      Incl.    4.00019     +0.32511626     +0.10646697             
P   2.72           H   24.73          G   0.15           U   9                  
Residuals in seconds of arc
240331 F52  0.1-  0.5+    240404 291  0.1+  0.1+    240405 H01  0.3-  0.0
240331 F52  0.1+  0.1+    240404 291  0.1-  0.4+    240406 H21  0.0   0.0
240331 F52  0.1+  0.2+    240404 291  0.1+  0.0     240406 H21  0.2-  0.0
240331 F52  0.4+  0.2-    240405 H01  0.1+  0.1+    240406 H21  0.2+  0.0
240401 F51  0.0   0.1-    240405 H01  0.1+  0.1-
240401 F51  0.1-  0.2+    240405 H01  0.0   0.0

Ephemeris:
2024 FS5                 a,e,i = 1.95, 0.77, 4                   q = 0.4558
Date    TT    R. A. (2000) Decl.     Delta      r    Elong.  Phase     V
2024 03 07    23 50 19.7 +01 42 39   0.2359  0.7634    12.2   164.1    33.7
...
2024 03 22    00 33 10.8 +68 03 20   0.04002 0.9818    67.6   110.2    21.9
...
2024 03 30    11 41 45.0 +27 24 47   0.1126  1.0941   146.3    30.4    21.5
...
2024 04 05    11 45 31.0 +18 21 02   0.1976  1.1757   150.0    25.2    22.7
2024 04 06    11 45 56.2 +17 30 50   0.2123  1.1890   149.8    25.0    22.9
2024 04 07    11 46 20.3 +16 46 25   0.2270  1.2023   149.6    24.9    23.1
...
2024 04 13    11 48 39.9 +13 36 21   0.3176  1.2806   146.9    25.3    23.9
...
2024 04 21    11 52 09.2 +11 01 49   0.4441  1.3813   141.7    26.8    24.9
...
2024 05 06    12 00 41.4 +07 51 52   0.6987  1.5590   131.0    29.2    26.2

M. P. C. Staff               (C) Copyright 2024 MPC           M.P.E.C. 2024-G80





More information about the Iaude mailing list